[[{"header":{"parameterUnit":"m.s-1","parameterCategory":1,"la1":30.2991,"la2":30.254,"lo1":-89.0895,"lo2":-89.0444,"dy":0.0017,"dx":0.0017,"nx":28,"ny":28,"refTime":"2024-05-22T09:00:00:Z","depth":0,"parameterNumber":2,"parameterNumberName":"U-component_of_WINDS"},"data":[0,0,0,0,0,0,0,0,0,0,0,0,0,0,0,0,0,0,0,0,0,0,0,0,0,0,0,0,0,0,0,0,0,0,0,0,0,0,0,0,0,0,0,0,0,0,0,0,0,0,0,0,0,0,0,0,0,0,-1.0108,-1.0107,0,-1.0082,-1.0082,-1.0081,-1.0056,-1.0056,-1.0055,-1.0055,-1.0029,-1.0029,-1.0028,0,0,0,0,0,0,0,0,0,0,0,0,0,-1.0136,-1.0135,-1.0108,-1.0107,-1.0107,-1.0082,-1.0082,-1.0081,-1.0056,-1.0056,-1.0055,-1.0055,-1.0029,-1.0029,-1.0028,0,0,0,0,0,0,0,0,0,0,0,0,0,-1.0118,-1.0135,-1.0108,-1.0091,-1.009,-1.0082,-1.0082,-1.0081,-1.0056,-1.0056,-1.0055,-1.0055,-1.0029,-1.0029,-1.0028,-1.0034,0,0,-1.0026,-1.0026,0,0,0,0,0,0,0,0,-1.0119,-1.0117,-1.0094,-1.0092,-1.0091,-1.0072,-1.0082,-1.0065,-1.0056,-1.0069,-1.0055,-1.0055,-1.0044,-1.0042,-1.0038,-1.0033,-1.0032,-1.0026,-1.0026,-1.0026,-1.0025,0,0,0,0,0,0,0,-1.0121,-1.0118,-1.0097,-1.0094,-1.0092,-1.0086,-1.0083,-1.0079,-1.0059,-1.0068,-1.0066,-1.0063,-1.0042,-1.0039,-1.0037,-1.0032,-1.0026,-1.0026,-1.0025,-1.0025,-1.0032,-1.0033,0,0,0,0,0,0,-1.0124,-1.0119,-1.0098,-1.0097,-1.0104,-1.0086,-1.0082,-1.0078,-1.0059,-1.0056,-1.0064,-1.0062,-1.004,-1.0038,-1.0036,-1.0043,-1.0026,-1.0025,-1.0025,-1.0032,-1.0032,-1.0033,0,0,0,0,0,0,-1.0125,-1.0123,-1.0099,-1.0108,-1.0104,-1.0086,-1.0081,-1.0078,-1.0074,-1.0056,-1.0053,-1.0063,-1.0039,-1.0037,-1.0035,-1.0042,-1.0025,-1.0024,-1.0031,-1.0032,-1.0033,-1.0057,0,0,0,0,0,0,-1.0126,-1.0123,-1.0125,-1.0108,-1.0104,-1.0099,-1.0082,-1.0078,-1.0073,-1.0071,-1.0055,-1.0052,-1.0039,-1.0036,-1.0035,-1.0041,-1.0024,-1.003,-1.0031,-1.0032,-1.0055,-1.0058,-1.0061,0,0,0,0,0,-1.0127,-1.0132,-1.0125,-1.0123,-1.0106,-1.0099,-1.0097,-1.0082,-1.0074,-1.0076,-1.0065,-1.0052,-1.0042,-1.0036,-1.0034,-1.004,-1.003,-1.0031,-1.0032,-1.0054,-1.0058,-1.0061,0,0,0,0,0,0,-1.015,-1.013,-1.0121,-1.0121,-1.0112,-1.0095,-1.0097,-1.0086,-1.0079,-1.0077,-1.0059,-1.0055,-1.0056,-1.0048,-1.0043,-1.0046,-1.0034,-1.0035,-1.0051,-1.0055,-1.0057,-1.0059,-1.0023,0,0,0,0,0,-1.0155,-1.0152,-1.0134,-1.0136,-1.0132,-1.0115,-1.0112,-1.0101,-1.0091,-1.0087,-1.0075,-1.0066,-1.006,-1.0057,-1.0051,-1.0054,-1.0051,-1.0058,-1.006,-1.0063,-1.0064,-1.0066,-1.0069,-1.0037,-1.0037,-1.0037,0,0,-1.0166,-1.0154,-1.0153,-1.014,-1.0132,-1.0129,-1.0112,-1.0109,-1.0106,-1.0086,-1.0084,-1.0075,-1.0064,-1.0065,-1.0065,-1.0058,-1.0072,-1.0064,-1.0066,-1.0066,-1.0068,-1.0071,-1.0073,-1.0038,-1.0038,-1.0037,0,0,-1.0184,-1.0174,-1.0175,-1.0168,-1.0155,-1.0144,-1.0145,-1.0129,-1.0123,-1.0121,-1.0106,-1.0103,-1.0094,-1.0086,-1.0081,-1.0098,-1.0087,-1.0097,-1.0111,-1.0114,-1.0116,-1.0118,-1.0125,-1.0128,-1.0098,-1.0098,-1.0098,0,-1.0198,-1.0193,-1.0177,-1.0175,-1.0171,-1.0153,-1.0154,-1.0147,-1.0134,-1.0131,-1.0124,-1.0113,-1.0104,-1.0103,-1.0108,-1.0104,-1.0105,-1.0098,-1.0117,-1.0119,-1.0121,-1.0127,-1.013,-1.0099,-1.0099,-1.0099,-1.0099,0,-1.0212,-1.0208,-1.0211,-1.0199,-1.0194,-1.0194,-1.0179,-1.0176,-1.0167,-1.0157,-1.0155,-1.0144,-1.0136,-1.0135,-1.0125,-1.0134,-1.013,-1.0121,-1.0108,-1.0126,-1.0131,-1.0133,-1.0101,-1.0101,-1.01,-1.01,0,0,-1.0243,-1.0223,-1.0224,-1.0219,-1.0205,-1.0202,-1.0202,-1.0194,-1.0192,-1.0184,-1.0184,-1.0177,-1.0168,-1.0163,-1.0152,-1.0154,-1.017,-1.0144,-1.0144,-1.015,-1.0179,-1.0187,-1.019,-1.0162,-1.0162,-1.0163,-1.0181,0,-1.0259,-1.0256,-1.0243,-1.0245,-1.0242,-1.0226,-1.0225,-1.0217,-1.0208,-1.0205,-1.0195,-1.0191,-1.0179,-1.0176,-1.0178,-1.0167,-1.0175,-1.0166,-1.0162,-1.0162,-1.0166,-1.0193,-1.0201,-1.0218,-1.0183,-1.0183,-1.0183,0,-1.0276,-1.027,-1.0272,-1.0259,-1.0257,-1.0257,-1.0249,-1.0246,-1.0237,-1.023,-1.0225,-1.0213,-1.0213,-1.0201,-1.02,-1.0194,-1.0192,-1.0187,-1.0187,-1.0187,-1.0174,-1.0193,-1.0223,-1.0226,-1.0186,-1.0186,-1.0186,0,-1.03,-1.0291,-1.0291,-1.0287,-1.0272,-1.0273,-1.0266,-1.0256,-1.0253,-1.0247,-1.0245,-1.0238,-1.0235,-1.0231,-1.0218,-1.021,-1.0219,-1.0206,-1.0214,-1.0214,-1.0216,-1.0216,-1.0247,-1.0215,-1.0215,-1.0215,-1.0214,0,-1.0319,-1.0321,-1.0302,-1.0302,-1.0304,-1.0289,-1.0292,-1.0284,-1.0275,-1.0274,-1.026,-1.0259,-1.0242,-1.024,-1.023,-1.0231,-1.023,-1.0225,-1.0222,-1.0226,-1.0227,-1.0225,-1.0223,-1.0215,-1.0215,-1.0215,-1.0215,0,-1.0345,-1.0332,-1.0332,-1.0318,-1.0314,-1.0317,-1.0305,-1.0305,-1.0295,-1.0294,-1.0293,-1.0279,-1.0275,-1.0262,-1.0255,-1.0249,-1.0254,-1.0248,-1.0257,-1.0255,-1.0264,-1.0264,-1.0294,-1.0298,-1.0263,-1.0264,-1.0264,0,-1.0358,-1.036,-1.0346,-1.0344,-1.0339,-1.0336,-1.0333,-1.0318,-1.0316,-1.0306,-1.0307,-1.0303,-1.0298,-1.0294,-1.0283,-1.0278,-1.0273,-1.0284,-1.0272,-1.0276,-1.0273,-1.0274,-1.0274,-1.0286,-1.0287,-1.0287,-1.0287,0,-1.0383,-1.0377,-1.0373,-1.0367,-1.0364,-1.0359,-1.0353,-1.0352,-1.0336,-1.0334,-1.0331,-1.0327,-1.0321,-1.0317,-1.031,-1.0304,-1.0294,-1.0291,-1.0293,-1.0297,-1.0302,-1.03,-1.0264,-1.0291,-1.029,-1.029,-1.029,-1.029,-1.0404,-1.0405,-1.0395,-1.0392,-1.0386,-1.0381,-1.038,-1.0371,-1.0368,-1.0362,-1.0354,-1.0352,-1.0343,-1.0333,-1.0328,-1.0327,-1.0321,-1.0323,-1.0324,-1.0325,-1.0327,-1.0303,-1.0325,-1.0325,-1.0325,-1.0325,-1.0325,0,-1.0429,-1.0422,-1.0419,-1.0411,-1.0409,-1.0399,-1.0392,-1.039,-1.0389,-1.0382,-1.0378,-1.0375,-1.0371,-1.036,-1.0356,-1.0357,-1.0352,-1.0356,-1.0356,-1.0355,-1.0332,-1.0331,-1.036,-1.036,-1.036,-1.036,-1.036,-1.036,-1.0441,-1.0442,-1.0436,-1.0434,-1.0428,-1.0425,-1.0422,-1.0418,-1.0413,-1.0409,-1.0406,-1.04,-1.0391,-1.0386,-1.0383,-1.038,-1.0379,-1.0385,-1.0381,-1.036,-1.0356,-1.0353,-1.0352,-1.0385,-1.0385,-1.0404,-1.0404,-1.0404]},{"header":{"parameterUnit":"m.s-1","parameterCategory":1,"la1":30.2991,"la2":30.254,"lo1":-89.0895,"lo2":-89.0444,"dy":0.0017,"dx":0.0017,"nx":28,"ny":28,"refTime":"2024-05-22T09:00:00:Z","depth":0,"parameterNumber":3,"parameterNumberName":"V-component_of_WINDS"},"data":[0,0,0,0,0,0,0,0,0,0,0,0,0,0,0,0,0,0,0,0,0,0,0,0,0,0,0,0,0,0,0,0,0,0,0,0,0,0,0,0,0,0,0,0,0,0,0,0,0,0,0,0,0,0,0,0,0,0,4.7906,4.7906,0,4.7917,4.7918,4.7918,4.7836,4.7833,4.7831,4.7829,4.7839,4.7842,4.7844,0,0,0,0,0,0,0,0,0,0,0,0,0,4.7811,4.7814,4.7906,4.7906,4.7906,4.7917,4.7918,4.7918,4.7836,4.7833,4.783,4.7828,4.7839,4.7841,4.7844,0,0,0,0,0,0,0,0,0,0,0,0,0,4.7841,4.7814,4.7906,4.7867,4.7863,4.7917,4.7918,4.7918,4.7837,4.7833,4.783,4.7826,4.7838,4.7841,4.7845,4.7936,0,0,4.7856,4.7857,0,0,0,0,0,0,0,0,4.7839,4.7844,4.7872,4.787,4.7866,4.7872,4.7888,4.7924,4.7837,4.7847,4.7829,4.7825,4.7853,4.7855,4.7865,4.7937,4.7937,4.7856,4.7858,4.786,4.7861,0,0,0,0,0,0,0,4.7837,4.7843,4.791,4.7873,4.7869,4.7848,4.7848,4.7894,4.7869,4.7846,4.784,4.7842,4.785,4.7861,4.7864,4.7937,4.7856,4.7859,4.7862,4.7863,4.8084,4.8088,0,0,0,0,0,0,4.7841,4.7842,4.791,4.7911,4.7844,4.7853,4.7853,4.7873,4.7868,4.7864,4.7845,4.7838,4.7857,4.786,4.7864,4.7971,4.786,4.7863,4.7865,4.8081,4.8085,4.8089,0,0,0,0,0,0,4.7839,4.7848,4.791,4.7875,4.7881,4.7858,4.7881,4.7875,4.7886,4.7868,4.7863,4.7861,4.7854,4.7859,4.7919,4.797,4.7865,4.7868,4.8076,4.8082,4.8087,4.8184,0,0,0,0,0,0,4.7837,4.7847,4.7883,4.7876,4.7883,4.7965,4.7884,4.7878,4.7893,4.7884,4.7882,4.7878,4.7852,4.7914,4.7923,4.7973,4.7871,4.8072,4.8079,4.8085,4.8177,4.8193,4.8206,0,0,0,0,0,4.7834,4.7909,4.7885,4.7893,4.7927,4.7968,4.7972,4.7941,4.7897,4.7932,4.792,4.7878,4.7963,4.7921,4.793,4.7982,4.8068,4.8077,4.8085,4.817,4.819,4.8206,0,0,0,0,0,0,4.7922,4.7908,4.788,4.7957,4.7964,4.7954,4.7997,4.7963,4.7982,4.7973,4.7933,4.7934,4.8,4.7997,4.795,4.807,4.8008,4.8018,4.807,4.8088,4.8103,4.8102,4.7874,0,0,0,0,0,4.795,4.7985,4.7971,4.804,4.8045,4.8021,4.8037,4.8013,4.8019,4.8021,4.8014,4.8021,4.8049,4.8068,4.8093,4.8176,4.8174,4.8216,4.8231,4.8243,4.8253,4.8296,4.8314,4.8116,4.8116,4.8116,0,0,4.8009,4.8006,4.803,4.8057,4.806,4.8097,4.8024,4.8066,4.8092,4.8027,4.8083,4.8078,4.8083,4.8155,4.8186,4.8154,4.8307,4.8254,4.8264,4.8267,4.8306,4.8325,4.8342,4.8122,4.8121,4.812,0,0,4.8135,4.8136,4.8193,4.8198,4.8203,4.8186,4.82,4.8195,4.819,4.8245,4.8197,4.8228,4.8277,4.8283,4.8292,4.842,4.8382,4.8429,4.8507,4.8549,4.8565,4.8578,4.8623,4.864,4.8439,4.8439,4.8439,0,4.8207,4.8261,4.8227,4.8272,4.8285,4.8228,4.8285,4.8291,4.8304,4.8314,4.8279,4.8339,4.8339,4.8411,4.8442,4.8451,4.8465,4.8429,4.8565,4.8579,4.8591,4.8633,4.865,4.8445,4.8444,4.8443,4.8443,0,4.8349,4.8387,4.8433,4.8447,4.8465,4.8516,4.8489,4.8511,4.8485,4.8472,4.8529,4.8526,4.8549,4.8564,4.8539,4.8633,4.8613,4.8572,4.8509,4.8616,4.8655,4.8671,4.8453,4.8451,4.8449,4.8448,0,0,4.8531,4.8526,4.8543,4.8549,4.8551,4.8579,4.8627,4.865,4.8669,4.868,4.8719,4.8762,4.8725,4.8735,4.871,4.8747,4.8848,4.8702,4.8701,4.8729,4.895,4.898,4.9,4.8823,4.8826,4.8828,4.8949,0,4.8654,4.8736,4.8706,4.879,4.8824,4.8771,4.8812,4.8818,4.8807,4.8834,4.8821,4.8852,4.88,4.8806,4.884,4.8828,4.8892,4.8819,4.8858,4.886,4.8858,4.902,4.9053,4.9168,4.8964,4.8967,4.8969,0,4.8808,4.8825,4.8913,4.8908,4.8921,4.8959,4.8977,4.9004,4.9009,4.8998,4.901,4.8977,4.9023,4.896,4.9023,4.8974,4.8988,4.8984,4.8988,4.899,4.8921,4.9027,4.9203,4.9221,4.8993,4.8991,4.8989,0,4.8931,4.8976,4.9034,4.9041,4.9037,4.9065,4.9064,4.9065,4.9081,4.9097,4.9106,4.9128,4.9139,4.9156,4.9129,4.9086,4.9195,4.9131,4.9187,4.9188,4.9213,4.9211,4.9394,4.9223,4.9222,4.9222,4.9222,0,4.9071,4.9126,4.9089,4.9125,4.9185,4.915,4.9211,4.9204,4.9206,4.9239,4.9194,4.9226,4.9188,4.9216,4.9196,4.925,4.9256,4.9248,4.9242,4.9252,4.9253,4.9261,4.9252,4.9227,4.9226,4.9225,4.9224,0,4.9219,4.9196,4.9256,4.9247,4.9246,4.9291,4.9283,4.9316,4.9301,4.9344,4.9352,4.9329,4.936,4.9335,4.9365,4.935,4.9423,4.9405,4.9422,4.9417,4.9475,4.947,4.9668,4.9692,4.9506,4.9508,4.9509,0,4.9309,4.9351,4.9346,4.9365,4.9368,4.9399,4.9415,4.9382,4.94,4.9408,4.9439,4.9466,4.9486,4.9538,4.9524,4.9546,4.9529,4.9597,4.9532,4.9541,4.9529,4.9527,4.9531,4.961,4.9612,4.9614,4.9615,0,4.9472,4.9459,4.9483,4.9504,4.9524,4.9539,4.955,4.9568,4.9534,4.9556,4.9587,4.9603,4.9633,4.9661,4.9678,4.9677,4.9641,4.9636,4.965,4.9661,4.9668,4.9665,4.9457,4.9631,4.963,4.9629,4.9628,4.9627,4.9594,4.9628,4.963,4.9659,4.9664,4.9675,4.9705,4.9694,4.9719,4.9742,4.9721,4.9758,4.9761,4.9781,4.9784,4.9813,4.9784,4.9805,4.981,4.9816,4.9824,4.9664,4.9816,4.9815,4.9815,4.9814,4.9814,0,4.9754,4.9753,4.9779,4.9796,4.9819,4.9783,4.9793,4.9814,4.9847,4.9853,4.9874,4.9909,4.9935,4.9923,4.9946,4.9971,4.9955,4.9978,4.9976,4.9976,4.9848,4.9834,4.9991,4.9991,4.9991,4.9991,4.9991,4.999,4.984,4.9896,4.9883,4.994,4.9938,4.9975,4.9983,4.9993,4.9998,5.004,5.0061,5.0053,5.0052,5.0074,5.0096,5.0092,5.0102,5.0131,5.0121,5.0002,4.9985,4.9968,4.9954,5.0134,5.0134,5.0246,5.0247,5.0248]}]]